| time (UTC) | temp F | wind direction | speed MPH | gust MPH | rain 1hr in | rain 24hr in | rain mn in | humidity % | barometer mb |
| 20260504050259 | 49 | 278 | 2.0 | 2.0 | 0.00 | 0.00 | 0.00 | 48 | 1012.5 |
| 20260504045756 | 49 | 276 | 2.0 | 3.0 | 0.00 | 0.00 | 0.00 | 48 | 1012.7 |
| 20260504045256 | 50 | 271 | 3.0 | 3.0 | 0.00 | 0.00 | 0.00 | 48 | 1012.8 |
| 20260504044754 | 50 | 281 | 2.0 | 3.0 | 0.00 | 0.00 | 0.00 | 47 | 1012.7 |
| 20260504044251 | 49 | 287 | 2.0 | 3.0 | 0.00 | 0.00 | 0.00 | 47 | 1012.7 |
| 20260504043748 | 49 | 275 | 3.0 | 3.0 | 0.00 | 0.00 | 0.00 | 49 | 1012.4 |
| 20260504043245 | 49 | 286 | 2.0 | 2.0 | 0.00 | 0.00 | 0.00 | 49 | 1012.7 |
| 20260504042743 | 49 | 282 | 2.0 | 3.0 | 0.00 | 0.00 | 0.00 | 50 | 1012.7 |
| 20260504042239 | 48 | 312 | 1.0 | 2.0 | 0.00 | 0.00 | 0.00 | 51 | 1012.3 |
| 20260504041736 | 49 | 329 | 1.0 | 1.0 | 0.00 | 0.00 | 0.00 | 55 | 1012.2 |
| 20260504041232 | 49 | 310 | 2.0 | 3.0 | 0.00 | 0.00 | 0.00 | 47 | 1012.2 |
| 20260504040728 | 50 | 323 | 0.0 | 2.0 | 0.00 | 0.00 | 0.00 | 50 | 1012.3 |
| 20260504040225 | 50 | 290 | 1.0 | 2.0 | 0.00 | 0.00 | 0.00 | 48 | 1012.3 |
| 20260504035721 | 50 | 304 | 2.0 | 2.0 | 0.00 | 0.00 | 0.00 | 46 | 1012.2 |
| 20260504035219 | 51 | 288 | 2.0 | 2.0 | 0.00 | 0.00 | 0.00 | 46 | 1012.5 |
| 20260504034716 | 50 | 305 | 2.0 | 2.0 | 0.00 | 0.00 | 0.00 | 45 | 1012.3 |
| 20260504034213 | 49 | 290 | 2.0 | 3.0 | 0.00 | 0.00 | 0.00 | 47 | 1012.2 |
| 20260504033711 | 50 | 282 | 2.0 | 2.0 | 0.00 | 0.00 | 0.00 | 49 | 1012.3 |
| 20260504033208 | 51 | 314 | 2.0 | 2.0 | 0.00 | 0.00 | 0.00 | 48 | 1012.4 |
| 20260504032705 | 51 | 281 | 2.0 | 3.0 | 0.00 | 0.00 | 0.00 | 45 | 1012.3 |
| 20260504032202 | 50 | 273 | 2.0 | 3.0 | 0.00 | 0.00 | 0.00 | 46 | 1012.1 |
| 20260504031659 | 50 | 303 | 2.0 | 3.0 | 0.00 | 0.00 | 0.00 | 47 | 1012.4 |
| 20260504031155 | 50 | 288 | 1.0 | 2.0 | 0.00 | 0.00 | 0.00 | 49 | 1011.9 |
| 20260504030652 | 50 | 300 | 1.0 | 2.0 | 0.00 | 0.00 | 0.00 | 47 | 1012.2 |
| 20260504030149 | 51 | 311 | 2.0 | 2.0 | 0.00 | 0.00 | 0.00 | 46 | 1012.0 |
| 20260504025645 | 51 | 292 | 2.0 | 2.0 | 0.00 | 0.00 | 0.00 | 45 | 1012.1 |
| 20260504025142 | 50 | 280 | 2.0 | 3.0 | 0.00 | 0.00 | 0.00 | 46 | 1012.0 |
| 20260504024640 | 50 | 292 | 2.0 | 2.0 | 0.00 | 0.00 | 0.00 | 47 | 1011.9 |
| 20260504024136 | 51 | 305 | 0.0 | 1.0 | 0.00 | 0.00 | 0.00 | 50 | 1012.0 |
| 20260504023633 | 51 | 286 | 2.0 | 2.0 | 0.00 | 0.00 | 0.00 | 45 | 1011.9 |
| 20260504023129 | 51 | 272 | 2.0 | 2.0 | 0.00 | 0.00 | 0.00 | 45 | 1012.0 |
| 20260504022625 | 51 | 276 | 2.0 | 2.0 | 0.00 | 0.00 | 0.00 | 45 | 1012.2 |
| 20260504022121 | 51 | 286 | 2.0 | 3.0 | 0.00 | 0.00 | 0.00 | 46 | 1012.1 |
| 20260504021620 | 50 | 270 | 2.0 | 3.0 | 0.00 | 0.00 | 0.00 | 47 | 1012.1 |
| 20260504021116 | 47 | 315 | 2.0 | 3.0 | 0.00 | 0.00 | 0.00 | 51 | 1012.0 |
| 20260504020613 | 48 | 333 | 1.0 | 1.0 | 0.00 | 0.00 | 0.00 | 56 | 1012.0 |
| 20260504020109 | 49 | 334 | 1.0 | 1.0 | 0.00 | 0.00 | 0.00 | 52 | 1012.0 |
| 20260504015606 | 49 | 328 | 1.0 | 2.0 | 0.00 | 0.00 | 0.00 | 53 | 1012.1 |
| 20260504015101 | 47 | 306 | 1.0 | 2.0 | 0.00 | 0.00 | 0.00 | 55 | 1012.2 |
| 20260504014558 | 45 | 301 | 0.0 | 1.0 | 0.00 | 0.00 | 0.00 | 64 | 1012.2 |
| 20260504014055 | 45 | 340 | 0.0 | 0.0 | 0.00 | 0.00 | 0.00 | 63 | 1012.1 |
| 20260504013553 | 45 | 340 | 0.0 | 0.0 | 0.00 | 0.00 | 0.00 | 63 | 1011.9 |
| 20260504013049 | 46 | 339 | 0.0 | 0.0 | 0.00 | 0.00 | 0.00 | 62 | 1011.9 |
| 20260504012547 | 46 | 339 | 0.0 | 0.0 | 0.00 | 0.00 | 0.00 | 60 | 1011.8 |
| 20260504012045 | 46 | 333 | 0.0 | 0.0 | 0.00 | 0.00 | 0.00 | 60 | 1011.8 |
| 20260504011541 | 47 | 338 | 0.0 | 0.0 | 0.00 | 0.00 | 0.00 | 59 | 1011.7 |
| 20260504011037 | 48 | 339 | 0.0 | 0.0 | 0.00 | 0.00 | 0.00 | 59 | 1011.8 |
| 20260504010533 | 49 | 330 | 0.0 | 0.0 | 0.00 | 0.00 | 0.00 | 58 | 1012.0 |
| 20260504010029 | 50 | 325 | 0.0 | 0.0 | 0.00 | 0.00 | 0.00 | 53 | 1011.7 |
| 20260504005526 | 51 | 329 | 0.0 | 0.0 | 0.00 | 0.00 | 0.00 | 52 | 1011.7 |
| 20260504005024 | 52 | 330 | 0.0 | 0.0 | 0.00 | 0.00 | 0.00 | 49 | 1011.5 |
| 20260504004521 | 52 | 330 | 0.0 | 1.0 | 0.00 | 0.00 | 0.00 | 46 | 1011.6 |
| 20260504004018 | 53 | 329 | 1.0 | 2.0 | 0.00 | 0.00 | 0.00 | 46 | 1011.6 |
| 20260504003514 | 53 | 299 | 1.0 | 2.0 | 0.00 | 0.00 | 0.00 | 42 | 1011.6 |
| 20260504003011 | 53 | 297 | 1.0 | 2.0 | 0.00 | 0.00 | 0.00 | 42 | 1011.2 |
| 20260504002508 | 54 | 308 | 1.0 | 1.0 | 0.00 | 0.00 | 0.00 | 41 | 1011.3 |
| 20260504002006 | 54 | 320 | 1.0 | 1.0 | 0.00 | 0.00 | 0.00 | 40 | 1011.3 |
| 20260504001503 | 55 | 326 | 0.0 | 1.0 | 0.00 | 0.00 | 0.00 | 39 | 1011.1 |
| 20260504000959 | 55 | 312 | 1.0 | 1.0 | 0.00 | 0.00 | 0.00 | 39 | 1011.1 |
| 20260504000457 | 55 | 306 | 1.0 | 1.0 | 0.00 | 0.00 | 0.00 | 38 | 1011.2 |
| 20260503235954 | 56 | 311 | 1.0 | 2.0 | 0.00 | 0.00 | 0.00 | 37 | 1011.2 |
| 20260503235451 | 57 | 305 | 1.0 | 1.0 | 0.00 | 0.00 | 0.00 | 36 | 1010.8 |
| 20260503234948 | 57 | 318 | 1.0 | 1.0 | 0.00 | 0.00 | 0.00 | 34 | 1011.0 |
| 20260503234446 | 57 | 295 | 1.0 | 2.0 | 0.00 | 0.00 | 0.00 | 33 | 1010.8 |
| 20260503233944 | 58 | 315 | 1.0 | 2.0 | 0.00 | 0.00 | 0.00 | 34 | 1011.0 |
| 20260503233440 | 58 | 296 | 2.0 | 3.0 | 0.00 | 0.00 | 0.00 | 32 | 1010.8 |
| 20260503232936 | 58 | 312 | 2.0 | 4.0 | 0.00 | 0.00 | 0.00 | 33 | 1010.9 |
| 20260503232433 | 58 | 303 | 2.0 | 4.0 | 0.00 | 0.00 | 0.00 | 33 | 1010.8 |
| 20260503231932 | 59 | 309 | 1.0 | 2.0 | 0.00 | 0.00 | 0.00 | 33 | 1010.8 |
| 20260503231429 | 59 | 332 | 2.0 | 2.0 | 0.00 | 0.00 | 0.00 | 32 | 1011.1 |
| 20260503230925 | 59 | 298 | 2.0 | 2.0 | 0.00 | 0.00 | 0.00 | 32 | 1010.9 |
| 20260503230421 | 59 | 292 | 2.0 | 3.0 | 0.00 | 0.00 | 0.00 | 32 | 1010.9 |
| 20260503225920 | 59 | 325 | 2.0 | 2.0 | 0.00 | 0.00 | 0.00 | 32 | 1010.8 |
| 20260503225416 | 59 | 334 | 2.0 | 3.0 | 0.00 | 0.00 | 0.00 | 33 | 1010.8 |
| 20260503224911 | 59 | 294 | 4.0 | 6.0 | 0.00 | 0.00 | 0.00 | 30 | 1010.7 |
| 20260503224409 | 59 | 323 | 2.0 | 3.0 | 0.00 | 0.00 | 0.00 | 32 | 1010.7 |
| 20260503223906 | 59 | 334 | 2.0 | 3.0 | 0.00 | 0.00 | 0.00 | 30 | 1011.0 |
| 20260503223404 | 59 | 304 | 2.0 | 4.0 | 0.00 | 0.00 | 0.00 | 30 | 1010.7 |
| 20260503222859 | 60 | 323 | 4.0 | 8.0 | 0.00 | 0.00 | 0.00 | 30 | 1010.7 |
| 20260503222358 | 60 | 285 | 3.0 | 4.0 | 0.00 | 0.00 | 0.00 | 31 | 1010.7 |
| 20260503221856 | 60 | 322 | 1.0 | 4.0 | 0.00 | 0.00 | 0.00 | 30 | 1010.8 |
| 20260503221354 | 60 | 342 | 4.0 | 4.0 | 0.00 | 0.00 | 0.00 | 31 | 1010.7 |
| 20260503220850 | 60 | 321 | 2.0 | 2.0 | 0.00 | 0.00 | 0.00 | 32 | 1010.8 |
| 20260503220347 | 59 | 338 | 2.0 | 4.0 | 0.00 | 0.00 | 0.00 | 31 | 1010.7 |
| 20260503215844 | 60 | 293 | 3.0 | 4.0 | 0.00 | 0.00 | 0.00 | 32 | 1010.9 |
| 20260503215341 | 60 | 302 | 3.0 | 7.0 | 0.00 | 0.00 | 0.00 | 29 | 1010.8 |
| 20260503214838 | 60 | 319 | 3.0 | 4.0 | 0.00 | 0.00 | 0.00 | 31 | 1010.7 |
| 20260503214336 | 60 | 292 | 2.0 | 3.0 | 0.00 | 0.00 | 0.00 | 31 | 1010.8 |
| 20260503213833 | 60 | 318 | 3.0 | 4.0 | 0.00 | 0.00 | 0.00 | 30 | 1010.7 |
| 20260503213331 | 60 | 279 | 4.0 | 8.0 | 0.00 | 0.00 | 0.00 | 29 | 1010.8 |
| 20260503212827 | 59 | 358 | 3.0 | 6.0 | 0.00 | 0.00 | 0.00 | 32 | 1011.0 |
| 20260503212325 | 59 | 336 | 2.0 | 6.0 | 0.00 | 0.00 | 0.00 | 31 | 1010.8 |
| 20260503211822 | 59 | 299 | 3.0 | 4.0 | 0.00 | 0.00 | 0.00 | 30 | 1010.9 |
| 20260503211319 | 59 | 316 | 3.0 | 3.0 | 0.00 | 0.00 | 0.00 | 30 | 1010.9 |
| 20260503210819 | 60 | 282 | 4.0 | 7.0 | 0.00 | 0.00 | 0.00 | 31 | 1010.6 |
| 20260503210317 | 60 | 329 | 3.0 | 6.0 | 0.00 | 0.00 | 0.00 | 31 | 1010.9 |
| 20260503205811 | 58 | 355 | 3.0 | 7.0 | 0.00 | 0.00 | 0.00 | 30 | 1010.6 |
| 20260503205308 | 58 | 334 | 1.0 | 3.0 | 0.00 | 0.00 | 0.00 | 31 | 1010.7 |
| 20260503204805 | 59 | 334 | 2.0 | 4.0 | 0.00 | 0.00 | 0.00 | 31 | 1010.9 |
| 20260503204303 | 59 | 337 | 1.0 | 8.0 | 0.00 | 0.00 | 0.00 | 31 | 1010.8 |
| 20260503203800 | 59 | 17 | 5.0 | 7.0 | 0.00 | 0.00 | 0.00 | 28 | 1010.9 |
| 20260503203257 | 59 | 351 | 3.0 | 9.0 | 0.00 | 0.00 | 0.00 | 30 | 1010.7 |
| 20260503202754 | 59 | 335 | 2.0 | 3.0 | 0.00 | 0.00 | 0.00 | 29 | 1010.9 |
| 20260503202252 | 58 | 306 | 2.0 | 4.0 | 0.00 | 0.00 | 0.00 | 31 | 1010.8 |
| 20260503201749 | 58 | 313 | 3.0 | 6.0 | 0.00 | 0.00 | 0.00 | 30 | 1010.9 |
| 20260503201247 | 59 | 285 | 3.0 | 6.0 | 0.00 | 0.00 | 0.00 | 30 | 1011.1 |
| 20260503200743 | 59 | 291 | 4.0 | 6.0 | 0.00 | 0.00 | 0.00 | 28 | 1011.1 |
| 20260503200239 | 59 | 298 | 3.0 | 7.0 | 0.00 | 0.00 | 0.00 | 34 | 1011.0 |
| 20260503195736 | 59 | 290 | 3.0 | 8.0 | 0.00 | 0.00 | 0.00 | 29 | 1011.2 |
| 20260503195233 | 59 | 283 | 3.0 | 6.0 | 0.00 | 0.00 | 0.00 | 30 | 1011.2 |
| 20260503194731 | 60 | 346 | 4.0 | 9.0 | 0.00 | 0.00 | 0.00 | 30 | 1011.1 |
| 20260503194226 | 59 | 334 | 4.0 | 4.0 | 0.00 | 0.00 | 0.00 | 32 | 1011.3 |
| 20260503193723 | 59 | 314 | 3.0 | 4.0 | 0.00 | 0.00 | 0.00 | 31 | 1011.5 |
| 20260503193219 | 59 | 350 | 2.0 | 4.0 | 0.00 | 0.00 | 0.00 | 30 | 1011.5 |
| 20260503192715 | 59 | 325 | 4.0 | 8.0 | 0.00 | 0.00 | 0.00 | 30 | 1011.7 |
| 20260503192210 | 59 | 325 | 4.0 | 6.0 | 0.00 | 0.00 | 0.00 | 32 | 1011.4 |
| 20260503191707 | 59 | 305 | 3.0 | 4.0 | 0.00 | 0.00 | 0.00 | 31 | 1011.6 |
| 20260503191204 | 58 | 335 | 3.0 | 7.0 | 0.00 | 0.00 | 0.00 | 30 | 1011.7 |
| 20260503190701 | 58 | 331 | 4.0 | 9.0 | 0.00 | 0.00 | 0.00 | 32 | 1011.8 |
| 20260503190158 | 58 | 319 | 6.0 | 8.0 | 0.00 | 0.00 | 0.00 | 31 | 1011.6 |
| 20260503185655 | 56 | 313 | 2.0 | 4.0 | 0.00 | 0.00 | 0.00 | 34 | 1011.8 |
| 20260503185150 | 55 | 322 | 3.0 | 4.0 | 0.00 | 0.00 | 0.00 | 34 | 1011.9 |
| 20260503184645 | 56 | 312 | 5.0 | 7.0 | 0.00 | 0.00 | 0.00 | 32 | 1012.1 |
| 20260503184142 | 57 | 322 | 4.0 | 8.0 | 0.00 | 0.00 | 0.00 | 34 | 1012.2 |
| 20260503183638 | 57 | 307 | 3.0 | 6.0 | 0.00 | 0.00 | 0.00 | 33 | 1012.1 |
| 20260503183136 | 56 | 332 | 3.0 | 7.0 | 0.00 | 0.00 | 0.00 | 36 | 1012.2 |
| 20260503182634 | 57 | 293 | 6.0 | 8.0 | 0.00 | 0.00 | 0.00 | 34 | 1011.9 |
| 20260503182132 | 57 | 311 | 1.0 | 2.0 | 0.00 | 0.00 | 0.00 | 33 | 1012.1 |
| 20260503181628 | 56 | 292 | 2.0 | 6.0 | 0.00 | 0.00 | 0.00 | 38 | 1012.3 |
| 20260503181125 | 56 | 276 | 4.0 | 6.0 | 0.00 | 0.00 | 0.00 | 33 | 1012.2 |
| 20260503180622 | 55 | 264 | 4.0 | 7.0 | 0.00 | 0.00 | 0.00 | 32 | 1012.2 |
| 20260503180120 | 55 | 283 | 4.0 | 13.0 | 0.00 | 0.00 | 0.00 | 34 | 1012.2 |
| 20260503175617 | 56 | 326 | 4.0 | 6.0 | 0.00 | 0.00 | 0.00 | 32 | 1012.3 |
| 20260503175114 | 55 | 352 | 3.0 | 7.0 | 0.00 | 0.00 | 0.00 | 33 | 1012.2 |
| 20260503174611 | 55 | 312 | 2.0 | 4.0 | 0.00 | 0.00 | 0.00 | 33 | 1012.5 |
| 20260503174108 | 56 | 336 | 4.0 | 10.0 | 0.00 | 0.00 | 0.00 | 34 | 1012.3 |
| 20260503173602 | 56 | 320 | 3.0 | 7.0 | 0.00 | 0.00 | 0.00 | 36 | 1012.2 |
| 20260503173059 | 56 | 325 | 2.0 | 6.0 | 0.00 | 0.00 | 0.00 | 32 | 1012.4 |
| 20260503172556 | 56 | 3 | 4.0 | 7.0 | 0.00 | 0.00 | 0.00 | 37 | 1012.5 |
| 20260503172054 | 55 | 272 | 4.0 | 7.0 | 0.00 | 0.00 | 0.00 | 33 | 1012.4 |
| 20260503171550 | 56 | 330 | 5.0 | 7.0 | 0.00 | 0.00 | 0.00 | 33 | 1012.8 |
| 20260503171047 | 55 | 340 | 1.0 | 3.0 | 0.00 | 0.00 | 0.00 | 36 | 1012.4 |
| 20260503170543 | 56 | 329 | 4.0 | 6.0 | 0.00 | 0.00 | 0.00 | 33 | 1012.7 |
| 20260503150936 | 51 | 334 | 4.0 | 7.0 | 0.00 | 0.00 | 0.00 | 39 | 1013.1 |
| 20260503150433 | 51 | 299 | 3.0 | 7.0 | 0.00 | 0.00 | 0.00 | 39 | 1013.1 |
| 20260503131326 | 48 | 329 | 1.0 | 4.0 | 0.00 | 0.00 | 0.00 | 52 | 1013.2 |
| 20260503130823 | 48 | 322 | 2.0 | 8.0 | 0.00 | 0.00 | 0.00 | 51 | 1013.4 |
| 20260503130321 | 47 | 19 | 4.0 | 7.0 | 0.00 | 0.00 | 0.00 | 51 | 1013.3 |
| 20260503110714 | 44 | 334 | 0.0 | 1.0 | 0.00 | 0.00 | 0.00 | 62 | 1012.3 |
| 20260503110211 | 44 | 343 | 1.0 | 1.0 | 0.00 | 0.00 | 0.00 | 62 | 1012.3 |
| 20260503100138 | 43 | 331 | 1.0 | 2.0 | 0.00 | 0.00 | 0.00 | 66 | 1011.3 |
| 20260503081527 | 43 | 333 | 1.0 | 1.0 | 0.00 | 0.00 | 0.00 | 69 | 1010.6 |
| 20260503081025 | 43 | 334 | 1.0 | 2.0 | 0.00 | 0.00 | 0.00 | 69 | 1010.5 |
| 20260503080520 | 43 | 325 | 2.0 | 3.0 | 0.00 | 0.00 | 0.00 | 69 | 1010.7 |